TRANSIT 20 DEB

基本信息
目录编号:
44565
目录名称:
TRANSIT 20 DEB
国际标识:
1973-081E
轨道中心:
EARTH
物体状态:
在轨
发射日期:
1973-10-30 UTC
轨道信息
数据来源: 国际轨道数据
星历时间: 2026-07-13T23:14:47+0800
半长轴: 7358.164km
偏心率: 0.0142769
轨道倾角: 89.862°
近地点辐角: 142.046°
升交点赤经: 252.209°
平近点角: 219.088°
近地点: 874.975km
远地点: 1085.079km
周期: 104.692分钟
每日圈数: 13.75462
详细信息
发射场:
AFWTR
轨道高度:
LEO
数据来源:
AOE Integration Group
参考系:
TEME
时间系统:
UTC
历元类型:
SGP4
2D轨道图
3D轨道图
轨道高度分析图
轨道倾角分析图
轨道综合分析图
查看轨道综合分析图